When you browse on this site, cookies collect data to enhance your experience and personalize the content and advertising you see.
Visit our Privacy Policy to learn more. By continuing to use the site, you agree to this use of cookies and data.
  • In Sweden
  • List of Countries
  • For 7 days
  • Water Temperature
  • Satellite Maps
  • Weather Map
  • Weather Widgets
  • user-avatar
    Login

    Hourly Weather Zelenyy gay

    Today, 16 June, Sunday

    Time Temperature Precipitation Wind Pressure Humidity
    00:00 +12°C° 0 mm 1 mps 744 mmHg 57%
    01:00 +11°C° 0 mm 1 mps 744 mmHg 60%
    02:00 +10°C° 0 mm 2 mps 743 mmHg 63%
    03:00 +10°C° 0 mm 2 mps 743 mmHg 66%
    04:00 +10°C° 0 mm 2 mps 743 mmHg 70%
    05:00 +9°C° 0 mm 3 mps 744 mmHg 74%
    06:00 +11°C° 0 mm 3 mps 744 mmHg 70%
    07:00 +12°C° 0 mm 4 mps 744 mmHg 65%
    08:00 +14°C° 0 mm 4 mps 744 mmHg 61%
    09:00 +15°C° 0.2 mm 4 mps 744 mmHg 57%
    10:00 +16°C° 0.2 mm 5 mps 744 mmHg 54%
    11:00 +17°C° 0.2 mm 5 mps 743 mmHg 50%
    12:00 +17°C° 0.5 mm 6 mps 743 mmHg 50%
    13:00 +17°C° 0.5 mm 6 mps 743 mmHg 50%
    14:00 +17°C° 0.5 mm 6 mps 743 mmHg 50%
    15:00 +17°C° 0.2 mm 6 mps 743 mmHg 49%
    16:00 +17°C° 0.2 mm 5 mps 743 mmHg 49%
    17:00 +19°C° 0.2 mm 5 mps 743 mmHg 48%
    18:00 +18°C° 0 mm 4 mps 743 mmHg 54%
    19:00 +17°C° 0 mm 4 mps 743 mmHg 59%
    20:00 +15°C° 0 mm 4 mps 743 mmHg 65%
    21:00 +14°C° 0 mm 4 mps 743 mmHg 68%
    22:00 +13°C° 0 mm 4 mps 743 mmHg 71%
    23:00 +12°C° 0 mm 4 mps 743 mmHg 75%

    Tomorrow, 17 June, Monday

    Time Temperature Precipitation Wind Pressure Humidity
    00:00 +12°C° 0 mm 4 mps 742 mmHg 76%
    01:00 +11°C° 0 mm 4 mps 742 mmHg 78%
    02:00 +11°C° 0 mm 4 mps 742 mmHg 79%
    03:00 +11°C° 0 mm 4 mps 741 mmHg 79%
    04:00 +11°C° 0 mm 4 mps 741 mmHg 78%
    05:00 +10°C° 0 mm 5 mps 741 mmHg 78%
    06:00 +12°C° 0 mm 5 mps 741 mmHg 73%
    07:00 +14°C° 0 mm 6 mps 741 mmHg 68%
    08:00 +15°C° 0 mm 6 mps 741 mmHg 63%
    09:00 +16°C° 0.3 mm 7 mps 741 mmHg 63%
    10:00 +16°C° 0.3 mm 7 mps 741 mmHg 64%
    11:00 +16°C° 0.3 mm 8 mps 741 mmHg 65%
    12:00 +15°C° 0.4 mm 6 mps 741 mmHg 70%
    13:00 +14°C° 0.4 mm 5 mps 741 mmHg 74%
    14:00 +13°C° 0.4 mm 3 mps 741 mmHg 79%
    15:00 +13°C° 0.1 mm 3 mps 741 mmHg 76%
    16:00 +14°C° 0.1 mm 3 mps 741 mmHg 73%
    17:00 +14°C° 0.1 mm 3 mps 741 mmHg 70%
    18:00 +14°C° 0 mm 3 mps 741 mmHg 71%
    19:00 +13°C° 0 mm 3 mps 741 mmHg 73%
    20:00 +13°C° 0 mm 3 mps 741 mmHg 75%
    21:00 +13°C° 0 mm 2 mps 742 mmHg 77%
    22:00 +12°C° 0 mm 2 mps 742 mmHg 80%
    23:00 +10°C° 0 mm 2 mps 742 mmHg 83%

    Day after tomorrow, 18 June, Tuesday

    Time Temperature Precipitation Wind Pressure Humidity
    00:00 +10°C° 0 mm 2 mps 742 mmHg 83%
    01:00 +10°C° 0 mm 2 mps 742 mmHg 83%
    02:00 +10°C° 0 mm 1 mps 741 mmHg 83%
    03:00 +10°C° 0 mm 1 mps 741 mmHg 84%
    04:00 +9°C° 0 mm 2 mps 742 mmHg 84%
    05:00 +9°C° 0 mm 2 mps 742 mmHg 84%
    06:00 +10°C° 0 mm 2 mps 742 mmHg 77%
    07:00 +13°C° 0 mm 2 mps 742 mmHg 70%
    08:00 +14°C° 0 mm 2 mps 742 mmHg 64%
    09:00 +15°C° 0 mm 2 mps 741 mmHg 58%
    10:00 +16°C° 0 mm 2 mps 741 mmHg 53%
    11:00 +17°C° 0 mm 3 mps 741 mmHg 47%
    12:00 +18°C° 0 mm 3 mps 741 mmHg 45%
    13:00 +19°C° 0 mm 3 mps 741 mmHg 44%
    14:00 +19°C° 0 mm 3 mps 740 mmHg 42%
    15:00 +20°C° 0 mm 4 mps 740 mmHg 42%
    16:00 +20°C° 0 mm 4 mps 740 mmHg 41%
    17:00 +20°C° 0 mm 4 mps 740 mmHg 41%
    18:00 +19°C° 0.1 mm 4 mps 740 mmHg 50%
    19:00 +18°C° 0.1 mm 3 mps 741 mmHg 59%
    20:00 +16°C° 0.1 mm 3 mps 741 mmHg 68%
    21:00 +14°C° 0.1 mm 3 mps 741 mmHg 73%
    22:00 +13°C° 0.1 mm 4 mps 742 mmHg 78%
    23:00 +12°C° 0.1 mm 5 mps 742 mmHg 84%

    19 June, Wednesday

    Time Temperature Precipitation Wind Pressure Humidity
    00:00 +11°C° 0 mm 4 mps 742 mmHg 85%
    01:00 +11°C° 0 mm 4 mps 742 mmHg 87%
    02:00 +10°C° 0 mm 4 mps 742 mmHg 88%
    03:00 +10°C° 0 mm 4 mps 743 mmHg 87%
    04:00 +8°C° 0 mm 4 mps 743 mmHg 85%
    05:00 +8°C° 0 mm 4 mps 744 mmHg 84%
    06:00 +10°C° 0 mm 4 mps 744 mmHg 76%
    07:00 +11°C° 0 mm 4 mps 745 mmHg 68%
    08:00 +12°C° 0 mm 4 mps 745 mmHg 60%
    09:00 +14°C° 0 mm 4 mps 745 mmHg 56%
    10:00 +15°C° 0 mm 5 mps 746 mmHg 51%
    11:00 +16°C° 0 mm 5 mps 746 mmHg 47%
    12:00 +16°C° 0 mm 5 mps 746 mmHg 47%
    13:00 +17°C° 0 mm 5 mps 746 mmHg 48%
    14:00 +17°C° 0 mm 5 mps 746 mmHg 48%
    15:00 +17°C° 0.1 mm 5 mps 746 mmHg 49%
    16:00 +19°C° 0.1 mm 5 mps 746 mmHg 50%
    17:00 +19°C° 0.1 mm 5 mps 746 mmHg 51%
    18:00 +18°C° 0 mm 4 mps 747 mmHg 56%
    19:00 +17°C° 0 mm 3 mps 747 mmHg 61%
    20:00 +16°C° 0 mm 2 mps 747 mmHg 66%
    21:00 +15°C° 0 mm 2 mps 747 mmHg 70%
    22:00 +14°C° 0 mm 3 mps 747 mmHg 74%
    23:00 +13°C° 0 mm 3 mps 747 mmHg 78%

    20 June, Thursday

    Time Temperature Precipitation Wind Pressure Humidity
    00:00 +12°C° 0 mm 3 mps 747 mmHg 80%
    01:00 +12°C° 0 mm 3 mps 747 mmHg 81%
    02:00 +12°C° 0 mm 3 mps 747 mmHg 83%
    03:00 +12°C° 0 mm 3 mps 747 mmHg 84%
    04:00 +12°C° 0 mm 3 mps 747 mmHg 84%
    05:00 +11°C° 0 mm 3 mps 747 mmHg 85%
    06:00 +13°C° 0 mm 3 mps 747 mmHg 78%
    07:00 +16°C° 0 mm 3 mps 747 mmHg 71%
    08:00 +18°C° 0 mm 3 mps 747 mmHg 65%
    09:00 +19°C° 0 mm 3 mps 747 mmHg 59%
    10:00 +20°C° 0 mm 3 mps 747 mmHg 53%
    11:00 +21°C° 0 mm 3 mps 747 mmHg 47%
    12:00 +22°C° 0.1 mm 3 mps 747 mmHg 48%
    13:00 +22°C° 0.1 mm 3 mps 747 mmHg 49%
    14:00 +22°C° 0.1 mm 4 mps 747 mmHg 50%
    15:00 +22°C° 0.2 mm 4 mps 747 mmHg 50%
    16:00 +23°C° 0.2 mm 5 mps 747 mmHg 50%
    17:00 +23°C° 0.2 mm 5 mps 746 mmHg 51%
    18:00 +22°C° 0.2 mm 5 mps 746 mmHg 56%
    19:00 +21°C° 0.2 mm 4 mps 746 mmHg 61%
    20:00 +20°C° 0.2 mm 3 mps 746 mmHg 67%
    21:00 +19°C° 0 mm 3 mps 746 mmHg 69%
    22:00 +18°C° 0 mm 3 mps 746 mmHg 71%
    23:00 +17°C° 0 mm 4 mps 746 mmHg 72%

    21 June, Friday

    Time Temperature Precipitation Wind Pressure Humidity
    00:00 +17°C° 0 mm 4 mps 746 mmHg 71%
    01:00 +15°C° 0 mm 4 mps 745 mmHg 69%
    02:00 +15°C° 0 mm 4 mps 745 mmHg 67%
    03:00 +15°C° 0 mm 4 mps 745 mmHg 69%
    04:00 +15°C° 0 mm 4 mps 745 mmHg 70%
    05:00 +15°C° 0 mm 4 mps 744 mmHg 72%
    06:00 +15°C° 0 mm 5 mps 744 mmHg 69%
    07:00 +16°C° 0 mm 5 mps 744 mmHg 67%
    08:00 +16°C° 0 mm 5 mps 744 mmHg 64%
    09:00 +16°C° 0.1 mm 5 mps 744 mmHg 66%
    10:00 +16°C° 0.1 mm 5 mps 743 mmHg 68%
    11:00 +17°C° 0.1 mm 5 mps 743 mmHg 70%
    12:00 +19°C° 0.2 mm 6 mps 743 mmHg 65%
    13:00 +21°C° 0.2 mm 7 mps 743 mmHg 60%
    14:00 +23°C° 0.2 mm 8 mps 743 mmHg 54%
    15:00 +22°C° 1.1 mm 7 mps 743 mmHg 57%
    16:00 +22°C° 1.1 mm 6 mps 742 mmHg 60%
    17:00 +22°C° 1.1 mm 5 mps 742 mmHg 62%
    18:00 +21°C° 0.2 mm 4 mps 742 mmHg 67%
    19:00 +20°C° 0.2 mm 3 mps 742 mmHg 72%
    20:00 +19°C° 0.2 mm 3 mps 742 mmHg 77%
    21:00 +18°C° 0.2 mm 3 mps 742 mmHg 80%
    22:00 +17°C° 0.2 mm 2 mps 742 mmHg 84%
    23:00 +16°C° 0.2 mm 2 mps 742 mmHg 87%
    Show more